Austin Bergstrom, TX

12:18 PM CDT on July 26, 2017 (GMT -0500)
Austin Bergstrom International

Weather History for KAUS - July, 2013

Change the Weather History Date:

Friday, July 12, 2013

  Actual Average Record
Temperature  
Mean Temperature 87 °F 83 °F  
Max Temperature 102 °F 95 °F 106 °F (1954)
Min Temperature 72 °F 72 °F 64 °F (2014)
Degree Days  
Heating Degree Days 0 0  
Month to date heating degree days 0 0  
Since 1 June heating degree days 0 0  
Since 1 July heating degree days 0 0  
Cooling Degree Days 22 18  
Month to date cooling degree days 219 216  
Year to date cooling degree days 1302 1204  
Since 1 June cooling degree days 788 697  
Growing Degree Days 37 (Base 50)    
Moisture  
Dew Point 66 °F    
Average Humidity 60    
Maximum Humidity 93    
Minimum Humidity 27    
Precipitation  
Precipitation 0.00 in 0.10 in 0.89 in (1943)
Month to date precipitation 0.02 1.19  
Year to date precipitation 16.15 19.43  
Snow  
Snow 0.00 in - - ()
Month to date snowfall 0.0  
Since 1 June snowfall 0.0  
Since 1 July snowfall 0.0  
Snow Depth 0.00 in    
Sea Level Pressure  
Sea Level Pressure 29.89 in    
Wind  
Wind Speed 6 mph (South)    
Max Wind Speed 14 mph    
Max Gust Speed 20 mph    
Visibility 10 miles    
Events      
T = Trace of Precipitation, MM = Missing Value Source: NWS Daily Summary

Daily Weather History Graph

Daily Weather History Graph

Search for Another Location

Airport or City:

Trip Planner

Search our weather history database for the weather conditions in past years. The results will help you decide how hot, cold, wet, or windy it might be!

Date:

Astronomy

Jul. 12, 2013 Rise Set
Actual Time 6:37 AM CDT 8:34 PM CDT
Civil Twilight 6:10 AM CDT 9:01 PM CDT
Nautical Twilight 5:38 AM CDT 9:34 PM CDT
Astronomical Twilight 5:03 AM CDT 10:09 PM CDT
Moon 10:34 AM CDT (7/12) 11:09 PM CDT (7/12)
Length of Visible Light 14h 50m
Length of Day
13h 56m
Waxing Crescent, 17% of the Moon is Illuminated
Jul 12
Waxing Crescent
Jul 15
First Quarter
Jul 22
Full
Jul 29
Last Quarter
Aug 6
New

Hourly Weather History & Observations

Time (CDT) Temp. Heat Index Dew Point Humidity Pressure Visibility Wind Dir Wind Speed Gust Speed Precip Events Conditions
12:53 AM 82.9 °F 86.5 °F 69.1 °F 63% 29.90 in 10.0 mi SSW 6.9 mph - N/A   Scattered Clouds
1:53 AM 81.0 °F 83.3 °F 66.9 °F 62% 29.90 in 10.0 mi South 10.4 mph - N/A   Scattered Clouds
2:53 AM 78.1 °F - 68.0 °F 71% 29.90 in 10.0 mi South 4.6 mph - N/A   Scattered Clouds
3:53 AM 75.9 °F - 68.0 °F 76% 29.90 in 10.0 mi Calm Calm - N/A   Partly Cloudy
4:53 AM 75.9 °F - 70.0 °F 82% 29.91 in 10.0 mi SSW 3.5 mph - N/A   Clear
5:53 AM 73.9 °F - 70.0 °F 87% 29.90 in 10.0 mi South 4.6 mph - N/A   Scattered Clouds
6:53 AM 72.0 °F - 70.0 °F 93% 29.92 in 10.0 mi Calm Calm - N/A   Mostly Cloudy
7:53 AM 77.0 °F - 72.0 °F 84% 29.94 in 10.0 mi South 3.5 mph - N/A   Mostly Cloudy
7:57 AM 78.8 °F - 71.6 °F 78% 29.97 in 10.0 mi South 4.6 mph - N/A   Mostly Cloudy
8:53 AM 81.0 °F 85.2 °F 72.0 °F 74% 29.94 in 10.0 mi SSW 10.4 mph - N/A   Mostly Cloudy
9:53 AM 84.9 °F 90.1 °F 71.1 °F 63% 29.94 in 10.0 mi WSW 5.8 mph - N/A   Mostly Cloudy
10:53 AM 90.0 °F 94.5 °F 69.1 °F 50% 29.93 in 10.0 mi Calm Calm - N/A   Mostly Cloudy
11:53 AM 91.9 °F 94.1 °F 64.9 °F 41% 29.93 in 10.0 mi Variable 4.6 mph - N/A   Scattered Clouds
12:53 PM 95.0 °F 95.6 °F 62.1 °F 33% 29.91 in 10.0 mi SE 5.8 mph - N/A   Mostly Cloudy
1:53 PM 97.0 °F 98.3 °F 63.0 °F 32% 29.90 in 10.0 mi South 12.7 mph 18.4 mph N/A   Mostly Cloudy
2:53 PM 99.0 °F 99.5 °F 61.0 °F 28% 29.88 in 10.0 mi ESE 8.1 mph - N/A   Scattered Clouds
3:53 PM 99.0 °F 100.5 °F 62.1 °F 30% 29.86 in 10.0 mi SSE 8.1 mph - N/A   Scattered Clouds
4:53 PM 100.9 °F 102.1 °F 61.0 °F 27% 29.85 in 10.0 mi SE 8.1 mph 17.3 mph N/A   Mostly Cloudy
5:53 PM 100.0 °F 100.7 °F 60.1 °F 27% 29.83 in 10.0 mi Calm Calm - N/A   Scattered Clouds
6:53 PM 100.0 °F 101.2 °F 61.0 °F 28% 29.82 in 10.0 mi SE 6.9 mph - N/A   Mostly Cloudy
7:26 PM 98.6 °F 100.0 °F 62.6 °F 30% 29.87 in 10.0 mi SE 11.5 mph - N/A   Scattered Clouds
7:53 PM 96.1 °F 96.9 °F 62.1 °F 32% 29.83 in 10.0 mi SSE 6.9 mph - N/A   Scattered Clouds
8:33 PM 93.2 °F 94.9 °F 64.4 °F 38% 29.87 in 10.0 mi SSE 9.2 mph - N/A   Clear
8:53 PM 91.9 °F 93.3 °F 64.0 °F 39% 29.84 in 10.0 mi SSE 8.1 mph - N/A   Clear
9:53 PM 88.0 °F 89.6 °F 64.9 °F 46% 29.84 in 10.0 mi SSE 5.8 mph - N/A   Clear
10:53 PM 87.1 °F 89.2 °F 66.0 °F 49% 29.87 in 10.0 mi South 9.2 mph - N/A   Clear
11:53 PM 84.0 °F 87.8 °F 69.1 °F 61% 29.88 in 10.0 mi South 5.8 mph - N/A   Partly Cloudy